Regional Weather Roundup
Issued by NWS Sioux Falls, SD

Home | Current Version | Previous Version | Graphics & Text | Print | Product List | Glossary On
Versions: 1 2 3 4 5 6 7 8 9 10 11 12 13 14 15 16 17 18 19 20 21 22 23 24 25 26 27 28 29 30 31 32 33 34 35 36 37 38 39 40 41 42 43 44 45 46 47 48 49 50
000
ASUS43 KFSD 222002
RWRFSD

WEATHER ROUNDUP FOR SE SOUTH DAKOTA/SW MINNESOTA/NW IOWA
NATIONAL WEATHER SERVICE SIOUX FALLS SD
300 PM CDT WED OCT 22 2014

NOTE: "FAIR" INDICATES FEW OR NO CLOUDS BELOW 12,000 FEET WITH NO
SIGNIFICANT WEATHER AND OR OBSTRUCTIONS TO VISIBILITY.


SDZ038>040-050-052>070-222100-
SOUTHEAST SOUTH DAKOTA

CITY           SKY/WX    TMP DP  RH WIND       PRES   REMARKS
CHAMBERLAIN    CLOUDY    55  52  88 W8        29.96F
HURON          CLOUDY    56  54  93 MISG      29.92R
MADISON        CLOUDY    66  52  59 SW13      29.92F
MITCHELL       LGT RAIN  56  55  97 S3        29.94F FOG
SIOUX FALLS    CLOUDY    70  52  52 S14G24    29.92F
WINNER         FAIR      62  49  62 W10       29.98F
YANKTON        CLOUDY    70  54  56 SW7       29.91F
$$

MNZ071-072-080-081-089-090-097-098-222100-
SOUTHWEST MINNESOTA

CITY           SKY/WX    TMP DP  RH WIND       PRES   REMARKS
FAIRMONT       MOSUNNY   64  43  45 S22G30    30.04F
JACKSON        PTSUNNY   66  43  42 SE20      30.02F
LUVERNE        PTSUNNY   73  48  40 SW22G28   29.94F
MARSHALL       CLOUDY    70  46  43 S17G23    29.93F
MONTEVIDEO     CLOUDY    68  46  45 S15G22    29.93F
PIPESTONE      PTSUNNY   72  50  46 SW17G29   29.93F
REDWOOD FALLS  CLOUDY    67  45  45 S24G31    29.96F
TRACY          CLOUDY    67  48  49 S14G21    29.95F
WINDOM         CLOUDY    66  45  45 S18G25    29.98F
WORTHINGTON    PTSUNNY   70  46  43 S18G25    29.98F
$$

IAZ001>003-012>014-020>022-031-032-NEZ013-014-SDZ071-222100-
NORTHWEST IOWA

CITY           SKY/WX    TMP DP  RH WIND       PRES   REMARKS
CHEROKEE       MOSUNNY   71  50  47 S18       30.00F
DENISON        MOSUNNY   72  50  46 S14G24    30.01F
ESTHERVILLE    PTSUNNY   65  45  48 S26G32    30.03F
LE MARS        MOSUNNY   73  52  46 S18G26    29.95F
ORANGE CITY    MOSUNNY   73  48  40 S16G25    29.96F
SHELDON        MOSUNNY   72  50  46 S22G28    29.96F
SIOUX CITY     PTSUNNY   75  52  44 S16G22    29.96F
SPENCER        PTSUNNY   69  48  47 SE22G29   30.01F
STORM LAKE     MOSUNNY   72  48  43 S20G28    30.03F
$$

ABBREVIATIONS USED IN REMARKS
   TC - TEMPERATURE IN CELSIUS
  WCI - WIND CHILL INDEX
   HX - HEAT INDEX
  VSB - VISIBILITY




USA.gov is the U.S. government's official web portal to all federal, state and local government web resources and services.